User: anonymous   Login
Location: Unspecified
(0.0000°N, 0.0000°E)
Time: 02:40:26
(UTC+00:00)
Language:

Polar BEAR P87-1 - Orbit

View from above orbital plane
View from above orbital plane
View from above satellite
View from above satellite

Ground track
Ground track

The orbit data is extracted from the following two-line orbital elements,

1 17070U 86088A   17205.42968163 +.00000035 +00000-0 +24454-4 0  9990
2 17070 089.5395 325.2207 0038477 357.9950 071.7683 13.74733117538874
Epoch (UTC): 24 July 2017 10:18:44
Eccentricity: 0.0038477
inclination: 89.5395°
perigee height: 954 km
apogee height: 1011 km
right ascension of ascending node: 325.2207°
argument of perigee: 357.9950°
revolutions per day: 13.74733117
mean anomaly at epoch: 71.7683°
orbit number at epoch: 53887

The dashed part of the orbit path shows where the satellite is in the earth's shadow,  

DLR